User: anonymous   Login
Location: Holmes Observatory
(37.1039°N, 122.0513°W)
Time: 20:04:00
(UTC-08:00)
Language:

Cosmos 921 Rocket - Orbit

View from above orbital plane
View from above orbital plane
View from above satellite
View from above satellite

Ground track
Ground track

The orbit data is extracted from the following two-line orbital elements,

1 10096U 77055B   14329.83931282  .00000314  00000-0  35791-4 0  5965
2 10096 075.8348 218.7092 0042458 065.9611 002.4029 14.87994213 23250
Epoch (UTC): 25 November 2014 20:08:36
Eccentricity: 0.0042458
inclination: 75.8348°
perigee height: 574 km
apogee height: 634 km
right ascension of ascending node: 218.7092°
argument of perigee: 65.9611°
revolutions per day: 14.87994213
mean anomaly at epoch: 2.4029°
orbit number at epoch: 2325

The dashed part of the orbit path shows where the satellite is in the earth's shadow,  

DLR